Regional Weather Roundup
Issued by NWS Sioux Falls, SD

Home | Current Version | Previous Version | Text Only | Print | Product List | Glossary Off
Versions: 1 2 3 4 5 6 7 8 9 10 11 12 13 14 15 16 17 18 19 20 21 22 23 24 25 26 27 28 29 30 31 32 33 34 35 36 37 38 39 40 41 42 43 44 45 46 47 48 49 50

000
ASUS43 KFSD 010502
RWRFSD

WEATHER ROUNDUP FOR SE SOUTH DAKOTA/SW MINNESOTA/NW IOWA
NATIONAL WEATHER SERVICE SIOUX FALLS SD
1200 AM CDT FRI AUG 01 2014

NOTE: "FAIR" INDICATES FEW OR NO CLOUDS BELOW 12,000 FEET WITH NO
SIGNIFICANT WEATHER AND OR OBSTRUCTIONS TO VISIBILITY.


SDZ038>040-050-052>070-010600-
SOUTHEAST SOUTH DAKOTA

CITY           SKY/WX    TMP DP  RH WIND       PRES   REMARKS
CHAMBERLAIN    CLEAR     62  56  81 CALM      30.07R
HURON          CLEAR     63  58  83 CALM      30.05S
MADISON        FAIR      55  55 100 CALM      30.08R
MITCHELL       CLEAR     67  61  81 S8        30.06S
SIOUX FALLS    CLEAR     61  58  90 CALM      30.07R
WINNER         FAIR      70  58  65 SE7       30.08R
YANKTON        CLEAR     63  59  88 CALM      30.08R
$$

MNZ071-072-080-081-089-090-097-098-010600-
SOUTHWEST MINNESOTA

CITY           SKY/WX    TMP DP  RH WIND       PRES   REMARKS
FAIRMONT       CLEAR     64  55  72 CALM      30.05S
JACKSON        CLEAR     63  59  88 CALM      30.07S
LUVERNE        CLEAR     59  55  88 CALM      30.08R
MARSHALL       CLEAR     61  55  82 SW3       30.05R
MONTEVIDEO     CLEAR     64  55  72 CALM      30.05R
PIPESTONE      CLEAR     63  57  82 CALM      30.08S
REDWOOD FALLS  CLEAR     67  59  75 W3        30.04R
TRACY          CLEAR     65  57  77 SW5       30.07R
WINDOM         CLEAR     61  57  88 CALM      30.07R
WORTHINGTON    CLEAR     61  57  88 W5        30.08S
$$

IAZ001>003-012>014-020>022-031-032-NEZ013-014-SDZ071-010600-
NORTHWEST IOWA

CITY           SKY/WX    TMP DP  RH WIND       PRES   REMARKS
CHEROKEE       CLEAR     58  58 100 CALM      30.08R
DENISON        PTCLDY    59  59 100 CALM      30.06R
ESTHERVILLE    PTCLDY    62  60  93 W5        30.06S
LE MARS        PTCLDY    61  59  94 SW5       30.08R
ORANGE CITY    CLEAR     66  59  77 CALM      30.08R
SHELDON        CLEAR     57  57 100 CALM      30.07R
SIOUX CITY     CLEAR     59  57  93 CALM      30.07R
SPENCER        CLEAR     58  56  93 CALM      30.07R
STORM LAKE     CLEAR     59  59 100 CALM      30.09R
$$

ABBREVIATIONS USED IN REMARKS
   TC - TEMPERATURE IN CELSIUS
  WCI - WIND CHILL INDEX
   HX - HEAT INDEX
  VSB - VISIBILITY




USA.gov is the U.S. government's official web portal to all federal, state and local government web resources and services.